Dubrovnik, Croatia

8:27 AM CET on December 13, 2017 (GMT +0100)
Cilipi

Weather History for LDDU - December, 2017

Change the Weather History Date:

Friday, December 8, 2017

  Actual Average (LYTV) Record (LYTV)
Temperature  
Mean Temperature 50 °F -  
Max Temperature 55 °F 56 °F 64 °F (2010)
Min Temperature 44 °F 38 °F 27 °F (2013)
Degree Days  
Heating Degree Days 16    
Moisture  
Dew Point 41 °F    
Average Humidity 67    
Maximum Humidity 91    
Minimum Humidity 52    
Precipitation  
Precipitation 0.00 in - - ()
Sea Level Pressure  
Sea Level Pressure 30.18 in    
Wind  
Wind Speed 10 mph ()    
Max Wind Speed 20 mph    
Max Gust Speed 32 mph    
Visibility 7.9 miles    
Events Rain    
Averages and records for this station are not official NWS values.
T = Trace of Precipitation, MM = Missing Value Source: Averaged Metar Reports

Daily Weather History Graph

Daily Weather History Graph

Search for Another Location

Airport or City:

Trip Planner

Search our weather history database for the weather conditions in past years. The results will help you decide how hot, cold, wet, or windy it might be!

Date:

Astronomy

Dec. 08, 2017 Rise Set
Actual Time 7:04 AM CET 4:13 PM CET
Civil Twilight 6:32 AM CET 4:45 PM CET
Nautical Twilight 5:56 AM CET 5:20 PM CET
Astronomical Twilight 5:22 AM CET 5:54 PM CET
Moon 9:51 PM CET (12/8) 11:10 AM CET (12/8)
Length of Visible Light 10h 13m
Length of Day
9h 09m
Waning Gibbous, 70% of the Moon is Illuminated
Dec 8
Waning Gibbous
Dec 10
Last Quarter
Dec 18
New
Dec 26
First Quarter
Jan 2
Full

Hourly Weather History & Observations

Time (CET) Temp. Windchill Dew Point Humidity Pressure Visibility Wind Dir Wind Speed Gust Speed Precip Events Conditions
12:30 AM 48.2 °F - 33.8 °F 58% 30.36 in - NNE 9.2 mph - N/A   Clear
1:00 AM 54 °F - 52 °F 91% 29.94 in 16 mi ESE 8.9 mph - - Rain Light Rain
1:00 AM 48.2 °F - 33.8 °F 58% 30.36 in - NNE 9.2 mph - N/A   Clear
1:30 AM 48.2 °F - 33.8 °F 58% 30.33 in - NE 9.2 mph - N/A   Clear
2:00 AM 46.4 °F 41.9 °F 33.8 °F 62% 30.33 in - NE 9.2 mph - N/A   Clear
2:30 AM 48.2 °F - 33.8 °F 58% 30.33 in 6.2 mi NNE 10.4 mph - N/A   Partly Cloudy
3:00 AM 46.4 °F 42.4 °F 33.8 °F 62% 30.33 in 6.2 mi East 8.1 mph - N/A   Partly Cloudy
3:30 AM 44.6 °F 40.2 °F 33.8 °F 66% 30.33 in 6.2 mi East 8.1 mph - N/A   Partly Cloudy
4:00 AM 53 °F - 49 °F 80% 29.94 in 16 mi ESE 11.2 mph - -   Mostly Cloudy
4:00 AM 44.6 °F 40.2 °F 33.8 °F 66% 30.30 in 6.2 mi NE 8.1 mph - N/A   Partly Cloudy
4:30 AM 41.0 °F 37.1 °F 33.8 °F 76% 30.30 in 6.2 mi East 5.8 mph - N/A   Partly Cloudy
5:00 AM 44.6 °F 40.2 °F 33.8 °F 66% 30.30 in 6.2 mi East 8.1 mph - N/A   Partly Cloudy
5:30 AM 46.4 °F 41.9 °F 33.8 °F 62% 30.30 in 6.2 mi East 9.2 mph - N/A   Scattered Clouds
6:00 AM 42.8 °F 37.0 °F 33.8 °F 70% 30.30 in 6.2 mi East 10.4 mph - N/A   Scattered Clouds
6:30 AM 44.6 °F 39.2 °F 33.8 °F 66% 30.30 in 6.2 mi East 10.4 mph - N/A   Scattered Clouds
7:00 AM 53 °F - 48 °F 77% 29.96 in 19 mi East 8.9 mph - -   Scattered Clouds
7:00 AM 44.6 °F 39.2 °F 33.8 °F 66% 30.27 in 6.2 mi East 10.4 mph - N/A   Scattered Clouds
7:30 AM 44.6 °F 39.2 °F 33.8 °F 66% 30.27 in 6.2 mi East 10.4 mph - N/A   Scattered Clouds
8:00 AM 46.4 °F 42.4 °F 35.6 °F 66% 30.27 in 6.2 mi East 8.1 mph - N/A   Mostly Cloudy
8:30 AM 46.4 °F 41.9 °F 35.6 °F 66% 30.27 in 6.2 mi East 9.2 mph - N/A   Mostly Cloudy
9:00 AM 48.2 °F - 37.4 °F 66% 30.27 in 6.2 mi East 6.9 mph - N/A   Mostly Cloudy
9:30 AM 48.2 °F - 37.4 °F 66% 30.27 in 6.2 mi East 9.2 mph - N/A   Mostly Cloudy
10:00 AM 62 °F - 49 °F 53% 29.98 in 16 mi SE 15.7 mph - -   Scattered Clouds
10:00 AM 48.2 °F - 37.4 °F 66% 30.24 in 6.2 mi East 11.5 mph - N/A   Mostly Cloudy
10:30 AM 48.2 °F - 39.2 °F 71% 30.24 in 6.2 mi East 10.4 mph - N/A   Mostly Cloudy
11:00 AM 48.2 °F - 41.0 °F 76% 30.24 in 6.2 mi East 12.7 mph - N/A   Mostly Cloudy
11:30 AM 50.0 °F - 41.0 °F 71% 30.21 in 6.2 mi East 10.4 mph - N/A   Mostly Cloudy
12:00 PM 50.0 °F - 41.0 °F 71% 30.21 in 6.2 mi ESE 12.7 mph - N/A   Mostly Cloudy
12:30 PM 51.8 °F - 42.8 °F 71% 30.21 in 6.2 mi ESE 10.4 mph - N/A   Mostly Cloudy
1:00 PM 53 °F - 44 °F 62% 30.21 in 19 mi SE 11.2 mph - -   Mostly Cloudy
1:00 PM 53.6 °F - 44.6 °F 72% 30.18 in 6.2 mi SE 11.5 mph - N/A   Mostly Cloudy
1:30 PM 53.6 °F - 39.2 °F 58% 30.18 in 6.2 mi SE 12.7 mph - N/A   Mostly Cloudy
2:00 PM 53.6 °F - 41.0 °F 62% 30.15 in 6.2 mi SE 10.4 mph - N/A   Mostly Cloudy
2:30 PM 53.6 °F - 39.2 °F 58% 30.15 in 6.2 mi SE 12.7 mph - N/A   Mostly Cloudy
3:00 PM 53.6 °F - 41.0 °F 62% 30.15 in 6.2 mi SSE 6.9 mph - N/A   Mostly Cloudy
3:30 PM 53.6 °F - 41.0 °F 62% 30.15 in 6.2 mi SE 9.2 mph - N/A   Mostly Cloudy
4:00 PM 53 °F - 40 °F 52% 30.16 in 19 mi SE 11.2 mph - -   Mostly Cloudy
4:00 PM 53.6 °F - 41.0 °F 62% 30.15 in 6.2 mi SE 10.4 mph - N/A   Mostly Cloudy
4:30 PM 51.8 °F - 41.0 °F 67% 30.12 in 6.2 mi SE 9.2 mph - N/A   Mostly Cloudy
5:00 PM 50.0 °F - 42.8 °F 76% 30.12 in 6.2 mi ESE 10.4 mph - N/A   Mostly Cloudy
5:30 PM 53.6 °F - 42.8 °F 67% 30.12 in 6.2 mi SSE 13.8 mph - N/A   Mostly Cloudy
6:00 PM 53.6 °F - 42.8 °F 67% 30.12 in 6.2 mi SSE 13.8 mph - N/A   Mostly Cloudy
6:30 PM 53.6 °F - 41.0 °F 62% 30.12 in 6.2 mi SSE 13.8 mph - N/A   Mostly Cloudy
7:00 PM 54 °F - 43 °F 57% 30.12 in 19 mi SSE 13.4 mph - -   Mostly Cloudy
7:00 PM 53.6 °F - 42.8 °F 67% 30.09 in 6.2 mi SSE 15.0 mph - N/A   Mostly Cloudy
7:30 PM 55.4 °F - 44.6 °F 67% 30.09 in 6.2 mi SE 16.1 mph - N/A   Mostly Cloudy
8:00 PM 55.4 °F - 46.4 °F 72% 30.06 in 6.2 mi SSE 15.0 mph - N/A Rain Light Rain
8:30 PM 53.6 °F - 46.4 °F 77% 30.06 in 6.2 mi SSE 18.4 mph - N/A Rain Light Rain
9:00 PM 55.4 °F - 48.2 °F 77% 30.06 in 6.2 mi South 17.3 mph - N/A   Mostly Cloudy
9:30 PM 55.4 °F - 46.4 °F 72% 30.06 in 6.2 mi South 18.4 mph - N/A   Mostly Cloudy
10:00 PM 55 °F - 48 °F 69% 30.06 in 12 mi South 20.1 mph - -   Partly Cloudy
10:00 PM 55.4 °F - 48.2 °F 77% 30.04 in 6.2 mi South 19.6 mph 31.1 mph N/A   Mostly Cloudy
10:30 PM 55.4 °F - 48.2 °F 77% 30.04 in 6.2 mi South 18.4 mph 32.2 mph N/A   Mostly Cloudy
11:00 PM 55.4 °F - 46.4 °F 72% 30.04 in 6.2 mi South 18.4 mph - N/A   Scattered Clouds
11:30 PM 55.4 °F - 46.4 °F 72% 30.01 in 6.2 mi SSE 17.3 mph - N/A   Mostly Cloudy